User: anonymous
Location: Unspecified
(0.0000°N, 0.0000°E)
Time: 12:20:51
(UTC+02:00)
Language:

Gbstr 26 Del rocket - Orbit

View from above orbital plane
View from above orbital plane
View from above satellite
View from above satellite

Ground track
Ground track

The orbit data is extracted from the following two-line orbital elements,

1 25876U 99041E   14207.43530669 -.00000000  00000-0  40531-4 0  4253
2 25876 051.7658 162.0372 0540183 191.0904 319.5925 14.02137362766224
Epoch (UTC): 26 July 2014 10:26:50
Eccentricity: 0.0540183
inclination: 51.7658°
perigee height: 494 km
apogee height: 1279 km
right ascension of ascending node: 162.0372°
argument of perigee: 191.0904°
revolutions per day: 14.02137362
mean anomaly at epoch: 319.5925°
orbit number at epoch: 76622

The dashed part of the orbit path shows where the satellite is in the earth's shadow,  

DLR